Погода в Куйтуне

Россия / Республика Бурятия     51°31′53″N   107°45′29″E
темп.,
°C
ветер,
м/с
пор.,
м/с
влажн.,
%
обл.,
%
осадки,
мм/ч
давл.,
гПа
погр.,
м
17 апреля, сб
сб1723:00+1ю33386 0.0 101633
02:000ю324445 0.0 101527
05:00−1ю32516 0.0 101426
08:00+4ююз364075 0.0 1013424
11:00+9юз45315 0.0 1009823
14:00+13юз44245 0.0 10061527
17:00+14зюз44221 0.0 10031975
20:00+8св11343 0.0 100310
18 апреля, вс
вс1823:00+6вюв003752 0.0 100310
02:00+2зсз51079100 0.0 1009501
05:00−1ссз7147980 0.0 1014837
08:00−2сз8136248 0.4 1019950
11:000сз7113841 0.0 10211213
14:00+2ссз79275 0.0 10211662
17:00+2ссз67240 0.0 10221630
20:00−3с22325 0.0 102310
19 апреля, пн
пн1923:00−4в223956 0.0 102425
02:00−5юв22445 0.0 102327
05:00−6вюв22470 0.0 102224
08:00−1юв23295 0.0 1019313
11:00+6ююз47255 0.0 1014961
14:00+11юз68250 0.0 10091281
17:00+14юз69260 0.0 10051603
20:00+8ю34403 0.0 100465
20 апреля, вт
вт2023:00+7ююв47455 0.0 1003113
02:00+4ссз51158100 0.2 1007535
05:00−2ссз4128212 0.0 1013632
08:00−1ссз5867100 0.0 1016842
11:00+1с5657100 0.0 1017926
14:00+3с5546100 0.0 1015991
17:00+4с5534100 0.0 10141303
20:000с354196 0.0 1017202
21 апреля, ср
ср2123:00−1сз2343100 0.0 1018202
02:00−4св21525 0.1 101812
05:00−5св225874 0.0 101716
08:00−1св23416 0.0 1015350
11:00+6св332926 0.0 10101023
14:00+12ссв13245 0.0 10041555
17:00+12сз642599 0.0 10021127
20:00+1с51356100 0.0 1008624